Time,TemperatureF,DewpointF,PressureIn,WindDirection,WindDirectionDegrees,WindSpeedMPH,WindSpeedGustMPH,Humidity,HourlyPrecipIn,Conditions,Clouds,dailyrainin,SoftwareType,DateUTC
2013-02-10 00:01:00,28.0,18.0,29.99,ESE,112,2.0,3.0,67,0.00,,,0.00,,2013-02-10 08:01:00,
2013-02-10 00:32:00,28.0,19.0,30.02,SSE,150,2.0,2.0,69,0.00,,,0.00,,2013-02-10 08:32:00,
2013-02-10 00:43:00,28.0,19.0,30.02,SSE,150,2.0,2.0,69,0.00,,,0.00,,2013-02-10 08:43:00,
2013-02-10 00:52:00,28.0,19.0,30.02,SSE,150,2.0,2.0,69,0.00,,,0.00,,2013-02-10 08:52:00,
2013-02-10 01:01:00,29.0,20.0,30.02,SSE,158,2.0,2.0,70,0.00,,,0.00,,2013-02-10 09:01:00,
2013-02-10 01:11:00,29.0,20.0,30.02,SSE,158,2.0,2.0,70,0.00,,,0.00,,2013-02-10 09:11:00,
2013-02-10 01:21:00,29.0,20.0,30.02,SSE,158,2.0,2.0,70,0.00,,,0.00,,2013-02-10 09:21:00,
2013-02-10 01:31:00,28.0,19.0,30.02,SE,135,2.0,2.0,69,0.00,,,0.00,,2013-02-10 09:31:00,
2013-02-10 01:42:00,28.0,19.0,30.02,SE,135,2.0,2.0,69,0.00,,,0.00,,2013-02-10 09:42:00,
2013-02-10 01:52:00,27.0,18.0,30.02,SE,135,2.0,2.0,68,0.00,,,0.00,,2013-02-10 09:52:00,
2013-02-10 02:01:00,26.0,17.0,30.02,SE,135,2.0,3.0,69,0.00,,,0.00,,2013-02-10 10:01:00,
2013-02-10 02:21:00,26.0,17.0,30.02,SE,135,2.0,3.0,69,0.00,,,0.00,,2013-02-10 10:21:00,
2013-02-10 02:31:00,26.0,18.0,30.02,ESE,123,3.0,3.0,70,0.00,,,0.00,,2013-02-10 10:31:00,
2013-02-10 02:41:00,26.0,18.0,30.02,ESE,123,3.0,3.0,70,0.00,,,0.00,,2013-02-10 10:41:00,
2013-02-10 02:51:00,26.0,18.0,30.02,ESE,123,3.0,3.0,70,0.00,,,0.00,,2013-02-10 10:51:00,
2013-02-10 03:01:00,26.0,18.0,30.02,SE,132,3.0,3.0,71,0.00,,,0.00,,2013-02-10 11:01:00,
2013-02-10 03:21:00,26.0,18.0,30.02,SE,124,3.0,3.0,71,0.00,,,0.00,,2013-02-10 11:21:00,
2013-02-10 03:52:00,26.0,18.0,30.02,ESE,117,2.0,2.0,71,0.00,,,0.00,,2013-02-10 11:52:00,
2013-02-10 04:01:00,26.0,18.0,30.02,ESE,117,2.0,2.0,71,0.00,,,0.00,,2013-02-10 12:01:00,
2013-02-10 05:02:00,25.0,17.0,30.02,ESE,116,2.0,3.0,72,0.00,,,0.00,,2013-02-10 13:02:00,
2013-02-10 05:21:00,25.0,17.0,30.05,SSE,153,2.0,3.0,71,0.00,,,0.00,,2013-02-10 13:21:00,
2013-02-10 05:31:00,25.0,17.0,30.05,SSE,158,2.0,3.0,72,0.00,,,0.00,,2013-02-10 13:31:00,
2013-02-10 05:41:00,25.0,17.0,30.05,SSE,158,2.0,3.0,72,0.00,,,0.00,,2013-02-10 13:41:00,
2013-02-10 05:51:00,25.0,17.0,30.02,SE,135,2.0,3.0,72,0.00,,,0.00,,2013-02-10 13:51:00,
2013-02-10 06:01:00,25.0,17.0,30.05,SE,135,3.0,3.0,72,0.00,,,0.00,,2013-02-10 14:01:00,
2013-02-10 06:11:00,25.0,17.0,30.05,SE,135,3.0,3.0,72,0.00,,,0.00,,2013-02-10 14:11:00,
2013-02-10 06:21:00,25.0,17.0,30.05,SE,135,2.0,3.0,72,0.00,,,0.00,,2013-02-10 14:21:00,
2013-02-10 06:31:00,24.0,16.0,30.05,SE,135,2.0,3.0,71,0.00,,,0.00,,2013-02-10 14:31:00,
2013-02-10 06:41:00,24.0,16.0,30.05,SE,135,2.0,3.0,71,0.00,,,0.00,,2013-02-10 14:41:00,
2013-02-10 06:52:00,24.0,16.0,30.05,SE,135,2.0,3.0,71,0.00,,,0.00,,2013-02-10 14:52:00,
2013-02-10 07:01:00,24.0,16.0,30.05,SE,135,2.0,3.0,71,0.00,,,0.00,,2013-02-10 15:01:00,
2013-02-10 07:21:00,24.0,16.0,30.05,ESE,112,2.0,3.0,72,0.00,,,0.00,,2013-02-10 15:21:00,
2013-02-10 07:31:00,24.0,17.0,30.05,SE,135,2.0,3.0,73,0.00,,,0.00,,2013-02-10 15:31:00,
2013-02-10 07:41:00,24.0,17.0,30.05,SE,135,2.0,3.0,73,0.00,,,0.00,,2013-02-10 15:41:00,
2013-02-10 07:51:00,25.0,18.0,30.05,ESE,123,3.0,3.0,74,0.00,,,0.00,,2013-02-10 15:51:00,
2013-02-10 08:01:00,26.0,19.0,30.05,SSE,158,3.0,5.0,74,0.00,,,0.00,,2013-02-10 16:01:00,
2013-02-10 08:11:00,27.0,20.0,30.08,SSE,158,3.0,3.0,73,0.00,,,0.00,,2013-02-10 16:11:00,
2013-02-10 08:21:00,27.0,20.0,30.08,SSE,158,3.0,3.0,73,0.00,,,0.00,,2013-02-10 16:21:00,
2013-02-10 08:32:00,30.0,22.0,30.05,SSE,158,3.0,3.0,73,0.00,,,0.00,,2013-02-10 16:32:00,
2013-02-10 08:41:00,31.0,23.0,30.08,WNW,292,2.0,2.0,72,0.00,,,0.00,,2013-02-10 16:41:00,
2013-02-10 08:51:00,31.0,23.0,30.08,WNW,292,2.0,2.0,72,0.00,,,0.00,,2013-02-10 16:51:00,
2013-02-10 09:01:00,33.0,25.0,30.05,WNW,292,1.0,2.0,72,0.00,,,0.00,,2013-02-10 17:01:00,
2013-02-10 09:11:00,33.0,25.0,30.05,WNW,292,1.0,2.0,72,0.00,,,0.00,,2013-02-10 17:11:00,
2013-02-10 09:21:00,33.0,25.0,30.05,WNW,292,1.0,2.0,72,0.00,,,0.00,,2013-02-10 17:21:00,
2013-02-10 09:31:00,33.0,25.0,30.05,WNW,292,1.0,2.0,72,0.00,,,0.00,,2013-02-10 17:31:00,
2013-02-10 09:42:00,33.0,25.0,30.05,WNW,292,1.0,2.0,72,0.00,,,0.00,,2013-02-10 17:42:00,
2013-02-10 09:52:00,33.0,25.0,30.05,WNW,292,1.0,2.0,72,0.00,,,0.00,,2013-02-10 17:52:00,
2013-02-10 10:32:00,39.0,28.0,30.08,WNW,292,4.0,6.0,65,0.00,,,0.00,,2013-02-10 18:32:00,
2013-02-10 10:42:00,39.0,28.0,30.08,WNW,292,4.0,6.0,65,0.00,,,0.00,,2013-02-10 18:42:00,
2013-02-10 10:52:00,39.0,28.0,30.05,WNW,288,3.0,6.0,64,0.00,,,0.00,,2013-02-10 18:52:00,
2013-02-10 11:01:00,40.0,28.0,30.08,WNW,292,4.0,6.0,61,0.00,,,0.00,,2013-02-10 19:01:00,
2013-02-10 11:11:00,40.0,28.0,30.08,WNW,292,4.0,6.0,61,0.00,,,0.00,,2013-02-10 19:11:00,
2013-02-10 11:21:00,40.0,28.0,30.08,WNW,292,4.0,6.0,61,0.00,,,0.00,,2013-02-10 19:21:00,
2013-02-10 11:31:00,41.0,28.0,30.08,NW,319,3.0,6.0,59,0.00,,,0.00,,2013-02-10 19:31:00,
2013-02-10 11:43:00,40.0,26.0,30.08,NNW,329,3.0,7.0,56,0.00,,,0.00,,2013-02-10 19:43:00,
2013-02-10 11:52:00,40.0,26.0,30.08,NNW,329,3.0,7.0,56,0.00,,,0.00,,2013-02-10 19:52:00,
2013-02-10 12:01:00,40.0,26.0,30.08,NNW,329,3.0,7.0,56,0.00,,,0.00,,2013-02-10 20:01:00,
2013-02-10 12:11:00,40.0,26.0,30.08,NNW,329,3.0,7.0,56,0.00,,,0.00,,2013-02-10 20:11:00,
2013-02-10 12:21:00,40.0,26.0,30.08,NNW,329,3.0,7.0,56,0.00,,,0.00,,2013-02-10 20:21:00,
2013-02-10 12:32:00,42.0,25.0,30.05,WSW,254,3.0,6.0,50,0.00,,,0.00,,2013-02-10 20:32:00,
2013-02-10 12:42:00,43.0,26.0,30.05,SSW,209,2.0,6.0,50,0.00,,,0.00,,2013-02-10 20:42:00,
2013-02-10 12:52:00,43.0,26.0,30.05,SSW,209,2.0,6.0,50,0.00,,,0.00,,2013-02-10 20:52:00,
2013-02-10 13:02:00,43.0,24.0,30.05,East,97,3.0,5.0,46,0.00,,,0.00,,2013-02-10 21:02:00,
2013-02-10 13:11:00,43.0,24.0,30.05,East,97,3.0,5.0,46,0.00,,,0.00,,2013-02-10 21:11:00,
2013-02-10 13:21:00,43.0,24.0,30.05,East,97,3.0,5.0,46,0.00,,,0.00,,2013-02-10 21:21:00,
2013-02-10 13:32:00,45.0,27.0,30.05,South,179,2.0,5.0,48,0.00,,,0.00,,2013-02-10 21:32:00,
2013-02-10 13:41:00,45.0,27.0,30.05,South,179,2.0,5.0,48,0.00,,,0.00,,2013-02-10 21:41:00,
2013-02-10 13:52:00,45.0,27.0,30.05,South,179,2.0,5.0,48,0.00,,,0.00,,2013-02-10 21:52:00,
2013-02-10 14:01:00,44.0,25.0,30.05,SSW,213,3.0,6.0,46,0.00,,,0.00,,2013-02-10 22:01:00,
2013-02-10 14:11:00,45.0,25.0,30.02,NNE,27,2.0,6.0,45,0.00,,,0.00,,2013-02-10 22:11:00,
2013-02-10 14:21:00,45.0,25.0,30.02,NNE,27,2.0,6.0,45,0.00,,,0.00,,2013-02-10 22:21:00,
2013-02-10 14:31:00,45.0,25.0,30.05,East,83,1.0,5.0,45,0.00,,,0.00,,2013-02-10 22:31:00,
2013-02-10 14:42:00,45.0,25.0,30.05,East,83,1.0,5.0,45,0.00,,,0.00,,2013-02-10 22:42:00,
2013-02-10 14:52:00,45.0,25.0,30.05,East,83,1.0,5.0,45,0.00,,,0.00,,2013-02-10 22:52:00,
2013-02-10 15:01:00,45.0,25.0,30.02,WNW,294,2.0,3.0,45,0.00,,,0.00,,2013-02-10 23:01:00,
2013-02-10 15:11:00,45.0,25.0,30.02,WNW,294,2.0,3.0,45,0.00,,,0.00,,2013-02-10 23:11:00,
2013-02-10 15:21:00,44.0,23.0,30.02,WNW,292,2.0,5.0,44,0.00,,,0.00,,2013-02-10 23:21:00,
2013-02-10 15:31:00,44.0,23.0,30.02,WNW,292,2.0,5.0,44,0.00,,,0.00,,2013-02-10 23:31:00,
2013-02-10 15:41:00,45.0,24.0,30.02,East,85,2.0,3.0,44,0.00,,,0.00,,2013-02-10 23:41:00,
2013-02-10 15:52:00,45.0,24.0,30.02,East,85,2.0,3.0,44,0.00,,,0.00,,2013-02-10 23:52:00,
2013-02-10 16:01:00,45.0,24.0,30.02,East,85,2.0,3.0,44,0.00,,,0.00,,2013-02-11 00:01:00,
2013-02-10 16:11:00,44.0,23.0,30.02,NNW,327,2.0,5.0,44,0.00,,,0.00,,2013-02-11 00:11:00,
2013-02-10 16:21:00,44.0,23.0,30.02,NNW,327,2.0,5.0,44,0.00,,,0.00,,2013-02-11 00:21:00,
2013-02-10 16:32:00,44.0,23.0,30.02,ESE,123,1.0,2.0,44,0.00,,,0.00,,2013-02-11 00:32:00,
2013-02-10 16:41:00,44.0,23.0,30.02,ESE,123,1.0,2.0,44,0.00,,,0.00,,2013-02-11 00:41:00,
2013-02-10 16:51:00,44.0,23.0,30.02,ESE,123,1.0,2.0,44,0.00,,,0.00,,2013-02-11 00:51:00,
2013-02-10 17:01:00,42.0,22.0,29.99,ENE,68,2.0,2.0,44,0.00,,,0.00,,2013-02-11 01:01:00,
2013-02-10 17:11:00,42.0,22.0,29.99,ENE,68,2.0,2.0,44,0.00,,,0.00,,2013-02-11 01:11:00,
2013-02-10 17:21:00,41.0,21.0,29.99,East,81,1.0,2.0,45,0.00,,,0.00,,2013-02-11 01:21:00,
2013-02-10 17:32:00,39.0,20.0,29.99,ESE,112,2.0,3.0,46,0.00,,,0.00,,2013-02-11 01:32:00,
2013-02-10 17:41:00,39.0,20.0,29.99,ESE,112,2.0,3.0,46,0.00,,,0.00,,2013-02-11 01:41:00,
2013-02-10 17:52:00,39.0,20.0,29.99,ESE,112,2.0,3.0,46,0.00,,,0.00,,2013-02-11 01:52:00,
2013-02-10 18:01:00,35.0,18.0,29.99,SE,144,3.0,3.0,50,0.00,,,0.00,,2013-02-11 02:01:00,
2013-02-10 18:21:00,35.0,18.0,29.99,SE,144,3.0,3.0,50,0.00,,,0.00,,2013-02-11 02:21:00,
2013-02-10 18:31:00,34.0,18.0,29.99,ESE,112,3.0,3.0,51,0.00,,,0.00,,2013-02-11 02:31:00,
2013-02-10 18:41:00,34.0,18.0,30.02,ESE,105,2.0,3.0,52,0.00,,,0.00,,2013-02-11 02:41:00,
2013-02-10 18:52:00,34.0,18.0,30.02,ESE,105,2.0,3.0,52,0.00,,,0.00,,2013-02-11 02:52:00,
2013-02-10 19:01:00,34.0,18.0,30.02,ESE,105,2.0,3.0,52,0.00,,,0.00,,2013-02-11 03:01:00,
2013-02-10 19:11:00,34.0,18.0,30.02,ESE,105,2.0,3.0,52,0.00,,,0.00,,2013-02-11 03:11:00,
2013-02-10 19:21:00,34.0,18.0,30.02,ESE,105,2.0,3.0,52,0.00,,,0.00,,2013-02-11 03:21:00,
2013-02-10 20:01:00,33.0,18.0,29.99,SE,124,3.0,5.0,54,0.00,,,0.00,,2013-02-11 04:01:00,
2013-02-10 20:11:00,33.0,18.0,29.99,SE,124,3.0,5.0,54,0.00,,,0.00,,2013-02-11 04:11:00,
2013-02-10 20:21:00,33.0,18.0,29.99,SE,129,3.0,5.0,54,0.00,,,0.00,,2013-02-11 04:21:00,
2013-02-10 20:31:00,33.0,18.0,29.99,SSE,152,3.0,6.0,54,0.00,,,0.00,,2013-02-11 04:31:00,
2013-02-10 20:41:00,33.0,18.0,29.99,SSE,152,3.0,6.0,54,0.00,,,0.00,,2013-02-11 04:41:00,
2013-02-10 20:51:00,33.0,18.0,29.99,SSE,152,3.0,6.0,54,0.00,,,0.00,,2013-02-11 04:51:00,
2013-02-10 21:01:00,32.0,17.0,29.99,SE,129,3.0,5.0,54,0.00,,,0.00,,2013-02-11 05:01:00,
2013-02-10 21:11:00,32.0,17.0,29.99,SE,129,3.0,5.0,54,0.00,,,0.00,,2013-02-11 05:11:00,
2013-02-10 21:22:00,32.0,17.0,29.99,SE,129,3.0,5.0,54,0.00,,,0.00,,2013-02-11 05:22:00,
2013-02-10 21:31:00,31.0,16.0,29.99,SSE,158,3.0,5.0,54,0.00,,,0.00,,2013-02-11 05:31:00,
2013-02-10 21:41:00,31.0,16.0,29.99,SSE,158,3.0,5.0,54,0.00,,,0.00,,2013-02-11 05:41:00,
2013-02-10 21:52:00,31.0,16.0,29.99,SSE,158,3.0,5.0,54,0.00,,,0.00,,2013-02-11 05:52:00,
2013-02-10 22:01:00,31.0,16.0,29.99,SSE,158,3.0,6.0,54,0.00,,,0.00,,2013-02-11 06:01:00,
2013-02-10 22:11:00,31.0,16.0,29.99,SSE,158,3.0,6.0,54,0.00,,,0.00,,2013-02-11 06:11:00,
2013-02-10 22:21:00,31.0,16.0,30.02,SSE,158,3.0,3.0,54,0.00,,,0.00,,2013-02-11 06:21:00,
2013-02-10 22:32:00,31.0,16.0,30.02,SSE,158,3.0,3.0,54,0.00,,,0.00,,2013-02-11 06:32:00,
2013-02-10 22:42:00,31.0,16.0,30.02,SSE,158,3.0,3.0,54,0.00,,,0.00,,2013-02-11 06:42:00,
2013-02-10 22:51:00,31.0,16.0,30.02,SSE,158,3.0,3.0,54,0.00,,,0.00,,2013-02-11 06:51:00,
2013-02-10 23:11:00,30.0,16.0,29.99,SSE,157,3.0,3.0,55,0.00,,,0.00,,2013-02-11 07:11:00,
2013-02-10 23:21:00,30.0,16.0,29.99,SSE,157,3.0,3.0,55,0.00,,,0.00,,2013-02-11 07:21:00,
2013-02-10 23:32:00,31.0,17.0,29.99,SSE,158,3.0,5.0,55,0.00,,,0.00,,2013-02-11 07:32:00,
2013-02-10 23:41:00,31.0,17.0,29.99,SSE,158,3.0,5.0,55,0.00,,,0.00,,2013-02-11 07:41:00,
2013-02-10 23:51:00,31.0,17.0,29.99,SSE,158,3.0,5.0,55,0.00,,,0.00,,2013-02-11 07:51:00,